Charleston Air Force Base-International Airport Charleston US
ICAO: KCHS
IATA: CHS
Category: Large
Scheduled Services: Yes

Elevation: 46 ft
TransAlt. 18000 ft.

Airport Communications:
APP:30.692
APP:119.3
ATIS:124.75
CLNC DEL:118
DEP:120.7
GND:121.9
PMSV METRO:34.46
CONSOLIDATED COMD:134.1
PTD:37.22
ANDERSON RDO:122.2
TWR:126
UNICOM:122.95

KCHS Zoom In..

If you have problems with the map follow the link
https://www.worldairports.se/pages/airport.php?
ICAO=KCHS

Runways:

(A) RW 03 length 7000 ft width 150 ft
---- / hdg 31

(B) RW 15 length 9001 ft width 200 ft
ILS 109.70 / hdg 154

(C) RW 21 length 7000 ft width 150 ft
---- / hdg 211

(D) RW 33 length 9001 ft width 200 ft
ILS 108.90 / hdg 334

Location; KCHS
Day. 19 / Time. 13.56 Zulu
* Altimeter: 30.16
* Temperature: 16° c. 60.8°f.
* Wind from: 350° Speed 05 kn.
Dewpoint: 14° c.
Visibility: 10 Statute Miles.
Clouds: Scattered 25000 ft.

KCHS 191356Z 35005KT 10SM SCT250 16/14 A3016 RMK AO2 SLP212 T01560139


Wind From 350°
Speed 05 kn.

 
 
jpsmedia.com for Web Design worldairports.se 2018   terms of use